This demonstration page uses our WeatherBlox Daily Observations layout. Learn more.

38.80484, -77.04692

Hourly Observations for November 27, 2019

Temp ( °F °C ) Dew Point ( °F °C ) Humidity (%) Winds ( mph kmh ) Pressure ( in mb ) Visibility ( mi km ) Precip ( " mm )
12:52 am 00:52 Mostly Cloudy 47 8.3 42 5.6 83 83 Calm 30.02 1017 10 16.0934 0 0
1:52 am 01:52 Mostly Cloudy 45 7.2 43 6.1 93 93 Calm 30.01 1016 10 16.0934 0 0
2:52 am 02:52 Mostly Cloudy 45 7.2 42 5.6 90 90 ENE 3 6 29.99 1016 10 16.0934 0 0
3:52 am 03:52 Cloudy 46 7.8 43 6.1 89 89 Calm 29.98 1015 10 16.0934 0 0
4:52 am 04:52 Cloudy 46 7.8 43 6.1 89 89 NE 3 6 29.97 1015 10 16.0934 0 0
5:52 am 05:52 Cloudy 48 8.9 44 6.7 86 86 S 7 11 29.97 1015 10 16.0934 0 0
6:52 am 06:52 Cloudy with Light Rain 50 10 46 7.8 86 86 SSW 9 15 29.98 1015 10 16.0934 0.001 0.001
7:52 am 07:52 Cloudy with Light Rain 51 10.6 47 8.3 86 86 SSW 8 13 29.95 1014 10 16.0934 0.01 0.254
8:52 am 08:52 Cloudy 51 10.6 47 8.3 86 86 S 15 24 29.93 1013 10 16.0934 0.001 0.001
9:52 am 09:52 Cloudy 51 10.6 47 8.3 86 86 S 9 15 29.92 1013 10 16.0934 0 0
10:52 am 10:52 Cloudy 53 11.7 47 8.3 80 80 S 8 13 29.88 1012 10 16.0934 0 0
11:52 am 11:52 Cloudy 56 13.3 47 8.3 72 72 S 18 30 29.83 1010 10 16.0934 0 0
12:52 pm 12:52 Cloudy 57 13.9 48 8.9 72 72 SSW 24 39 29.77 1008 10 16.0934 0 0
1:10 pm 13:10 Cloudy 57 13.9 48 8.9 72 72 SSW 23 37 29.76 1008 10 16.0934 0 0
1:52 pm 13:52 Cloudy 57 13.9 49 9.4 74 74 S 18 30 29.72 1006 10 16.0934 0 0
2:52 pm 14:52 Cloudy 57 13.9 50 10 78 78 SSW 16 26 29.71 1006 10 16.0934 0 0
3:52 pm 15:52 Cloudy 58 14.4 51 10.6 78 78 SSW 21 33 29.69 1005 10 16.0934 0 0
4:34 pm 16:34 Partly Cloudy 57 13.9 51 10.6 81 81 SSW 18 30 29.67 1005 10 16.0934 0 0
4:52 pm 16:52 Partly Cloudy 57 13.9 51 10.6 81 81 SSW 18 30 29.67 1005 10 16.0934 0 0
5:52 pm 17:52 Mostly Clear 57 13.9 52 11.1 83 83 SSW 22 35 29.65 1004 10 16.0934 0 0
6:52 pm 18:52 Mostly Clear 57 13.9 52 11.1 83 83 SW 18 30 29.67 1005 10 16.0934 0 0
7:52 pm 19:52 Mostly Clear 57 13.9 52 11.1 83 83 SW 10 17 29.71 1006 10 16.0934 0 0
8:52 pm 20:52 Mostly Clear 55 12.8 50 10 83 83 SW 8 13 29.74 1007 10 16.0934 0 0
9:52 pm 21:52 Mostly Clear 53 11.7 49 9.4 86 86 VRB 7 11 29.77 1008 10 16.0934 0 0
10:52 pm 22:52 Clear 57 13.9 29 -1.7 34 34 WNW 22 35 29.8 1009 10 16.0934 0 0
11:52 pm 23:52 Clear 55 12.8 29 -1.7 37 37 WNW 20 31 29.81 1009 10 16.0934 0 0

Powered by AerisWeather